When you browse on this site, cookies collect data to enhance your experience and personalize the content and advertising you see.
Visit our Privacy Policy to learn more. By continuing to use the site, you agree to this use of cookies and data.
  • En España
  • Lista de países
  • Para 7 días
  • Temperatura del agua
  • El tiempo en el mapa
  • Informadores
  • user-avatar
    Iniciar sesión

    Tiempo cada hora Northallerton

    Hoy, 18 Octubre, Viernes

    Tiempo Temperatura Precipitaciones Viento Presión Humedad
    00:00 +8°C° 0 mm 2 mps 744 mmHg 95%
    01:00 +8°C° 0.1 mm 2 mps 744 mmHg 95%
    02:00 +9°C° 0.1 mm 2 mps 743 mmHg 95%
    03:00 +9°C° 0.1 mm 3 mps 743 mmHg 96%
    04:00 +9°C° 1.4 mm 2 mps 742 mmHg 96%
    05:00 +10°C° 1.4 mm 1 mps 742 mmHg 97%
    06:00 +8°C° 0 mm 0 mps 742 mmHg 96%
    07:00 +10°C° 0.2 mm 1 mps 742 mmHg 95%
    08:00 +10°C° 0.2 mm 1 mps 742 mmHg 93%
    09:00 +9°C° 0.2 mm 2 mps 741 mmHg 92%
    10:00 +10°C° 0 mm 2 mps 741 mmHg 87%
    11:00 +12°C° 0 mm 2 mps 742 mmHg 82%
    12:00 +11°C° 0 mm 3 mps 742 mmHg 77%
    13:00 +12°C° 0.2 mm 3 mps 741 mmHg 76%
    14:00 +12°C° 0.2 mm 3 mps 741 mmHg 76%
    15:00 +12°C° 0.2 mm 3 mps 741 mmHg 75%
    16:00 +11°C° 0.3 mm 3 mps 741 mmHg 79%
    17:00 +10°C° 0.3 mm 2 mps 741 mmHg 84%
    18:00 +9°C° 0.3 mm 2 mps 741 mmHg 88%
    19:00 +8°C° 0 mm 2 mps 741 mmHg 89%
    20:00 +8°C° 0 mm 2 mps 741 mmHg 90%
    21:00 +8°C° 0 mm 2 mps 741 mmHg 91%
    22:00 +8°C° 0 mm 2 mps 741 mmHg 91%
    23:00 +8°C° 0 mm 2 mps 741 mmHg 92%

    Mañana, 19 Octubre, Sábado

    Tiempo Temperatura Precipitaciones Viento Presión Humedad
    00:00 +8°C° 0 mm 2 mps 741 mmHg 93%
    01:00 +8°C° 0.2 mm 2 mps 741 mmHg 93%
    02:00 +8°C° 0.2 mm 2 mps 741 mmHg 94%
    03:00 +9°C° 0.2 mm 1 mps 741 mmHg 94%
    04:00 +8°C° 0.3 mm 2 mps 741 mmHg 94%
    05:00 +8°C° 0.3 mm 2 mps 742 mmHg 94%
    06:00 +8°C° 0.3 mm 2 mps 742 mmHg 94%
    07:00 +8°C° 0.2 mm 2 mps 742 mmHg 92%
    08:00 +8°C° 0.2 mm 2 mps 742 mmHg 91%
    09:00 +9°C° 0.2 mm 2 mps 743 mmHg 89%
    10:00 +10°C° 0.1 mm 2 mps 743 mmHg 86%
    11:00 +10°C° 0.1 mm 2 mps 743 mmHg 83%
    12:00 +11°C° 0.1 mm 3 mps 743 mmHg 80%
    13:00 +11°C° 0.2 mm 3 mps 744 mmHg 80%
    14:00 +11°C° 0.2 mm 3 mps 744 mmHg 80%
    15:00 +12°C° 0.2 mm 2 mps 744 mmHg 80%
    16:00 +10°C° 0.1 mm 3 mps 745 mmHg 84%
    17:00 +9°C° 0.1 mm 3 mps 745 mmHg 87%
    18:00 +8°C° 0.1 mm 3 mps 746 mmHg 90%
    19:00 +8°C° 0.1 mm 3 mps 747 mmHg 91%
    20:00 +7°C° 0.1 mm 4 mps 747 mmHg 92%
    21:00 +7°C° 0.1 mm 4 mps 748 mmHg 93%
    22:00 +8°C° 0.1 mm 5 mps 749 mmHg 92%
    23:00 +8°C° 0.1 mm 6 mps 749 mmHg 91%

    Pasado mañana, 20 Octubre, Domingo

    Tiempo Temperatura Precipitaciones Viento Presión Humedad
    00:00 +8°C° 0.1 mm 6 mps 750 mmHg 90%
    01:00 +7°C° 0.1 mm 6 mps 750 mmHg 88%
    02:00 +7°C° 0.1 mm 6 mps 751 mmHg 86%
    03:00 +7°C° 0.1 mm 6 mps 751 mmHg 84%
    04:00 +6°C° 0 mm 5 mps 752 mmHg 85%
    05:00 +6°C° 0 mm 5 mps 752 mmHg 86%
    06:00 +5°C° 0 mm 5 mps 753 mmHg 87%
    07:00 +5°C° 0 mm 6 mps 754 mmHg 85%
    08:00 +5°C° 0 mm 6 mps 754 mmHg 83%
    09:00 +6°C° 0 mm 7 mps 754 mmHg 81%
    10:00 +6°C° 0 mm 7 mps 755 mmHg 79%
    11:00 +6°C° 0 mm 7 mps 755 mmHg 78%
    12:00 +8°C° 0 mm 7 mps 756 mmHg 77%
    13:00 +8°C° 0 mm 7 mps 756 mmHg 78%
    14:00 +8°C° 0 mm 7 mps 756 mmHg 80%
    15:00 +6°C° 0 mm 7 mps 756 mmHg 81%
    16:00 +6°C° 0.1 mm 7 mps 756 mmHg 82%
    17:00 +6°C° 0.1 mm 7 mps 756 mmHg 83%
    18:00 +6°C° 0.1 mm 7 mps 757 mmHg 84%
    19:00 +8°C° 0.1 mm 7 mps 757 mmHg 85%
    20:00 +8°C° 0.1 mm 7 mps 758 mmHg 85%
    21:00 +8°C° 0.1 mm 7 mps 758 mmHg 86%
    22:00 +8°C° 0 mm 7 mps 758 mmHg 86%
    23:00 +8°C° 0 mm 7 mps 758 mmHg 85%

    21 Octubre, Lunes

    Tiempo Temperatura Precipitaciones Viento Presión Humedad
    00:00 +8°C° 0 mm 6 mps 758 mmHg 85%
    01:00 +8°C° 0 mm 6 mps 758 mmHg 85%
    02:00 +8°C° 0 mm 6 mps 759 mmHg 86%
    03:00 +8°C° 0 mm 6 mps 759 mmHg 86%
    04:00 +6°C° 0 mm 7 mps 759 mmHg 86%
    05:00 +6°C° 0 mm 7 mps 760 mmHg 86%
    06:00 +6°C° 0 mm 7 mps 760 mmHg 86%
    07:00 +6°C° 0 mm 7 mps 761 mmHg 85%
    08:00 +6°C° 0 mm 7 mps 761 mmHg 85%
    09:00 +7°C° 0 mm 6 mps 761 mmHg 84%
    10:00 +7°C° 0 mm 6 mps 762 mmHg 82%
    11:00 +8°C° 0 mm 6 mps 762 mmHg 81%
    12:00 +8°C° 0 mm 5 mps 763 mmHg 79%
    13:00 +8°C° 0 mm 5 mps 763 mmHg 78%
    14:00 +8°C° 0 mm 4 mps 763 mmHg 77%
    15:00 +9°C° 0 mm 3 mps 763 mmHg 76%
    16:00 +8°C° 0 mm 2 mps 763 mmHg 79%
    17:00 +7°C° 0 mm 2 mps 763 mmHg 82%
    18:00 +7°C° 0 mm 1 mps 764 mmHg 85%
    19:00 +7°C° 0 mm 1 mps 764 mmHg 86%
    20:00 +7°C° 0 mm 1 mps 764 mmHg 87%
    21:00 +6°C° 0 mm 1 mps 764 mmHg 88%
    22:00 +6°C° 0 mm 1 mps 764 mmHg 88%
    23:00 +6°C° 0 mm 1 mps 764 mmHg 89%

    22 Octubre, Martes

    Tiempo Temperatura Precipitaciones Viento Presión Humedad
    00:00 +5°C° 0 mm 2 mps 764 mmHg 90%
    01:00 +5°C° 0 mm 2 mps 764 mmHg 90%
    02:00 +4°C° 0 mm 2 mps 764 mmHg 91%
    03:00 +4°C° 0 mm 2 mps 764 mmHg 91%
    04:00 +4°C° 0 mm 2 mps 764 mmHg 91%
    05:00 +4°C° 0 mm 2 mps 764 mmHg 91%
    06:00 +4°C° 0 mm 2 mps 764 mmHg 91%
    07:00 +4°C° 0 mm 3 mps 764 mmHg 88%
    08:00 +5°C° 0 mm 3 mps 764 mmHg 85%
    09:00 +6°C° 0 mm 4 mps 764 mmHg 82%
    10:00 +7°C° 0 mm 4 mps 764 mmHg 79%
    11:00 +8°C° 0 mm 4 mps 764 mmHg 76%
    12:00 +9°C° 0 mm 5 mps 764 mmHg 72%
    13:00 +9°C° 0 mm 5 mps 763 mmHg 73%
    14:00 +9°C° 0 mm 5 mps 763 mmHg 73%
    15:00 +9°C° 0 mm 5 mps 762 mmHg 73%
    16:00 +8°C° 0 mm 4 mps 762 mmHg 77%
    17:00 +7°C° 0 mm 4 mps 762 mmHg 82%
    18:00 +5°C° 0 mm 3 mps 762 mmHg 86%
    19:00 +5°C° 0 mm 3 mps 761 mmHg 87%
    20:00 +5°C° 0 mm 3 mps 761 mmHg 87%
    21:00 +5°C° 0 mm 3 mps 761 mmHg 88%
    22:00 +5°C° 0 mm 3 mps 761 mmHg 89%
    23:00 +5°C° 0 mm 3 mps 761 mmHg 90%

    23 Octubre, Miércoles

    Tiempo Temperatura Precipitaciones Viento Presión Humedad
    00:00 +5°C° 0 mm 3 mps 760 mmHg 92%
    01:00 +5°C° 0 mm 3 mps 760 mmHg 92%
    02:00 +5°C° 0 mm 3 mps 760 mmHg 92%
    03:00 +5°C° 0 mm 3 mps 759 mmHg 91%
    04:00 +5°C° 0 mm 3 mps 759 mmHg 93%
    05:00 +5°C° 0 mm 3 mps 759 mmHg 94%
    06:00 +4°C° 0 mm 3 mps 759 mmHg 95%
    07:00 +5°C° 0 mm 3 mps 758 mmHg 93%
    08:00 +7°C° 0 mm 3 mps 758 mmHg 92%
    09:00 +8°C° 0 mm 3 mps 757 mmHg 90%
    10:00 +10°C° 0 mm 4 mps 757 mmHg 84%
    11:00 +10°C° 0 mm 5 mps 757 mmHg 79%
    12:00 +12°C° 0 mm 5 mps 757 mmHg 74%
    13:00 +12°C° 0 mm 5 mps 756 mmHg 74%
    14:00 +12°C° 0 mm 5 mps 756 mmHg 75%
    15:00 +12°C° 0 mm 4 mps 755 mmHg 75%
    16:00 +11°C° 0 mm 4 mps 755 mmHg 80%
    17:00 +10°C° 0 mm 4 mps 755 mmHg 84%
    18:00 +8°C° 0 mm 3 mps 755 mmHg 89%
    19:00 +7°C° 0 mm 4 mps 755 mmHg 89%
    20:00 +7°C° 0 mm 4 mps 755 mmHg 88%
    21:00 +7°C° 0 mm 4 mps 755 mmHg 88%
    22:00 +7°C° 0 mm 4 mps 754 mmHg 88%
    23:00 +7°C° 0 mm 4 mps 754 mmHg 88%
    Mostrar más